STARLINK-34275, 64413

Orbit data source: Space-Track

STARLINK-34275, 64413 is a payload satellite owned by SpaceX/Seattle (US) in LEO that was launched on Tue, 17 Jun 2025 UTC via an FALCON 9 launch vehicle from the Air Force Western Test Range (AFWTR). Payload-class satellites include a variety of spacecraft equipped with specific instruments for various scientific and technological missions. These include communications satellites like Starlink; space stations such as the ISS; scientific satellites like the Hubble; Earth observation satellites from companies like Planet Labs, Umbra, and HawkEye 360; GPS; miniature CubeSats for education and research; and military/defense satellites.

Loading next visibility...
Identifier
64413, 2025-129B
Orbit
LEO
Country
Flag of USUS
Related business
Manufacturer
SpaceX/Seattle
Mission
Operational Commercial Communications
Bus & Motor
STARLINK V2MO, Unknown motor
Mass
575 kg wet, ~530 kg dry
Launch date (UTC)
2025-06-17 (1 year ago)
Launch vehicle
FALCON 9
Launch site
Air Force Western Test Range (AFWTR)
Object type
Payload
Rocket body
Debris
Shape & HBR
Box + 2 Pan, 17.7 m
Radar Cross Section
36.964 m², Large (>1 m²)

Expand to show TLE details & history
Last TLE update: 10 hours ago

TLE from 10 hours ago
0 STARLINK-34275
1 64413U 25129B   26171.41344343  .00002385  00000-0  20759-3 0  9994
2 64413  70.0008 175.4789 0004019 267.5891  92.4808 14.98334734 56679
Epoch: 2026-06-20T09:55Z
TLE epoch observation values (Epoch: 2026-06-20T09:55:21.512Z)
Latitude
-0.00001°
Longitude
118.01084°
Altitude
574.587 km
Speed
7.574 km/s
True Right ascension
11h 41m 54s
True Declination
0° 00' 00"
Sunlit
Object was in daylight at epoch
Visualization orbit readout
Latitude
Unknown
Longitude
Unknown
Altitude
Unknown
Speed
Unknown
Apparent Right ascension
Unknown
Apparent Declination
Unknown
Sunlit
N/A
Visualization observer readout
Local Sidereal Time
07:20:31
Azimuth
Unknown
Elevation
Unknown
Doppler factor
Unknown
Orbital elements
Apogee altitude
572.782 km
Perigee altitude
567.197 km
Semi-major axis
6,948.126 km
Eccentricity
0.0004
Inclination
70.0008°
RAAN
175.4789°
Arg. of periapsis
267.5891°
True anomaly
92.52681°
Mean anomaly
92.4808°
Eccentric anomaly
92.50381°
Mean motion
3.7475 °/min
Orbital period
96.06 mins
BSTAR
0.00020759
Loading maneuver chart data...
Computing Atmospheric mass density...
Loading historical data...
Loading historical data...
Loading historical data...
Loading historical data...
Loading historical data...
Loading historical data...
Loading historical data...

Documentation

Showing up to 5 results
|